Location: Unspecified
(50.0830°N, 0.0000°E)
Time: 10:27:50
(UTC+00:00)

Envisat - Pass Details

Date: 21 November 2019
Orbit: 764 x 766 km, 98.1° (Epoch: 16 December)

Event Time Altitude Azimuth Distance (km) Brightness Sun altitude
Rises 17:42:20 0° 161° (SSE) 3,222 6.2 -14.6°
Reaches altitude 10° 17:44:38 10° 161° (SSE) 2,300 5.4 -15.0°
Maximum altitude 17:49:43 84° 74° (ENE) 778 2.9 -15.8°
Drops below altitude 10° 17:54:50 10° 347° (NNW) 2,316 5.5 -16.6°
Sets 17:57:08 0° 347° (NNW) 3,246 6.3 -16.9°
